{"data":{"norad_id":54093,"intl_designator":"2022-136AU","name":"STARLINK-5213","alt_names":[],"object_type":"PAYLOAD","status":"ACTIVE","operator":null,"country":"US","launch_date":"2022-10-20","launch_site_code":"AFETR","launch_vehicle":null,"mission":null,"orbit_class":"UNKNOWN","rcs_meters":null,"size_class":null,"mass_kg":null,"dimensions":null,"purposes":["comms"],"wikipedia_slug":null,"has_3d_model":false,"image_url":null,"decayed_at":null,"tle_current":{"epoch":"2026-05-24T20:09:08.001216Z","epoch_age_seconds":92088,"freshness":"FRESH","line1":"1 54093U 22136AU  26144.83967594  .00003128  00000+0  21463-3 0  9995","line2":"2 54093  53.2156 352.0200 0001198  97.4214 262.6914 15.08824802198481","mean_motion":15.08824802,"eccentricity":0.0001198,"inclination_deg":53.2156,"raan_deg":352.02,"arg_perigee_deg":97.4214,"mean_anomaly_deg":262.6914,"bstar":0.00021463,"rev_number":19848,"period_min":95.438515995444,"perigee_km":538.96107592413,"apogee_km":540.61861119584,"semimajor_km":6917.92684356,"source":"CELESTRAK","updated_at":"2026-05-25T13:38:17.656032Z"}}}